Regional Weather Roundup
Issued by NWS

Home | Current Version | Previous Version | Text Only | Print | Product List | Glossary Off
Versions: 1 2 3 4 5 6 7 8 9 10 11 12 13 14 15 16 17 18 19 20 21 22 23 24 25 26 27 28 29 30 31 32 33 34 35 36 37 38 39 40 41 42 43 44 45 46 47 48 49 50

000
ASUS43 KMKX 221000
RWRWI

WISCONSIN REGIONAL WEATHER ROUNDUP
NATIONAL WEATHER SERVICE MILWAUKEE/SULLIVAN WI
400 AM CST WED NOV 22 2017

NOTE: "FAIR" INDICATES FEW OR NO CLOUDS BELOW 12,000 FEET WITH NO
SIGNIFICANT WEATHER AND/OR OBSTRUCTIONS TO VISIBILITY.

WIZ001-002-006>008-014>016-023>028-221100-
NORTHWEST WISCONSIN

CITY           SKY/WX    TMP DP  RH WIND       PRES   REMARKS
SUPERIOR ARPT  CLOUDY    15  10  79 W5        30.31F WCI   8
ASHLAND        CLOUDY    19  11  70 W8        30.29F WCI   9
HAYWARD        CLOUDY    16   9  74 CALM      30.29S
SIREN          CLOUDY    12  10  88 CALM      30.32F
CUMBERLAND     CLOUDY    14  10  85 W3        30.29F
RICE LAKE      FLURRIES  13  10  85 CALM      30.32F
CHETEK           N/A     11   8  87 CALM      30.32S
LADYSMITH      CLOUDY    14  10  82 W7        30.31R WCI   4
EAU CLAIRE     CLOUDY    12   7  80 CALM      30.33S
MENOMONIE      CLOUDY    15  10  81 W6        30.35R WCI   7
NEW RICHMOND   CLOUDY    12   8  85 CALM      30.33F
OSCEOLA        CLOUDY    13  10  86 W5        30.36F WCI   5
$$

WIZ003>005-009-010-017-018-221100-
NORTH CENTRAL WISCONSIN

CITY           SKY/WX    TMP DP  RH WIND       PRES   REMARKS
MANITOWISH WTR FLURRIES  16  12  82 W8        30.21F WCI   6
ARBOR VITAE    FLURRIES  19  13  77 NW6       30.21S WCI  11
WOODRUFF       FLURRIES  19  13  77 NW6       30.21S WCI  11
RHINELANDER    CLOUDY    18  12  77 W8        30.21F WCI   8
EAGLE RIVER    FLURRIES  18  12  78 W6        30.19S WCI   9
LAND O LAKES   FLURRIES  18  14  84 W6        30.20F WCI  10
PHILLIPS       CLOUDY    15   9  77 CALM      30.24F
TOMAHAWK       CLOUDY    17  10  75 W6        30.25S WCI   8
MEDFORD        CLOUDY    17   9  70 NW9       30.25F WCI   5
MERRILL        CLOUDY    18  10  71 W6        30.25F WCI  10
$$

WIZ029-030-035-036-043>047-221100-
CENTRAL WISCONSIN

CITY           SKY/WX    TMP DP  RH WIND       PRES   REMARKS
WAUSAU         CLOUDY    19  10  68 NW10      30.26S WCI   7
MOSINEE        CLOUDY    19  12  73 NW8       30.28R WCI   9
MARSHFIELD     CLOUDY    18  11  74 NW9       30.26S WCI   7
STEVENS POINT  CLOUDY    18  10  70 N5        30.29R WCI  11
WAUPACA        CLOUDY    22  13  69 W5        30.30R WCI  16
WAUTOMA        CLEAR     16  10  77 NW5       30.31R WCI   9
WISC RAPIDS    CLOUDY    15   8  73 N5        30.31R WCI   8
CAMP DOUGLAS   CLEAR     13   8  81 NW5       30.31S WCI   6
$$

WIZ011>013-019>022-031-037>040-048>050-221100-
NORTHEAST WISCONSIN

CITY           SKY/WX    TMP DP  RH WIND       PRES   REMARKS
ANTIGO         FLURRIES  18  12  77 NW8       30.22F WCI   7
SHAWANO        CLOUDY    25  14  63 W5        30.27S WCI  19
OCONTO         CLOUDY    25  12  58 NW7       30.26S WCI  17
STURGEON BAY   CLOUDY    25  13  60 N13       30.25R WCI  14
GREEN BAY      CLOUDY    25  15  66 NW10      30.27R WCI  15
MANITOWOC      CLOUDY    25  15  66 NW7       30.28R WCI  17
APPLETON       PTCLDY    18  10  73 W8        30.26R WCI   7
CLINTONVILLE   CLOUDY    23  10  58 NW5       30.28R WCI  17
OSHKOSH        CLEAR     17  11  77 W7        30.28R WCI   8
$$

WIZ032>034-041-042-053>061-221100-
SOUTHWEST WISCONSIN

CITY           SKY/WX    TMP DP  RH WIND       PRES   REMARKS
LA CROSSE      CLEAR     19  11  70 N6        30.34F WCI  11
SPARTA         CLEAR     17  11  78 N3        30.33F
VIROQUA        CLEAR     18  13  84 N6        30.29S WCI   9
BOSCOBEL       CLEAR     19  11  70 CALM      30.34S
PRAIRIE DU CHI CLOUDY    21  12  68 NW7       30.34S WCI  12
PLATTEVILLE    CLOUDY    17  14  87 W7        30.31S WCI   8
$$

WIZ056-057-062-063-064-067-068-221100-
SOUTH CENTRAL WISCONSIN

CITY           SKY/WX    TMP DP  RH WIND       PRES   REMARKS
REEDSBURG      CLEAR     19  11  71 NW6       30.30R WCI  10
BARABOO/DELLS  CLEAR     19  11  69 NW5       30.29S WCI  12
LONE ROCK      NOT AVBL
MINERAL POINT  CLEAR     21  16  79 NW5       30.29R WCI  15
MADISON        CLEAR     19  11  70 CALM      30.29R
MIDDLETON      CLEAR     22  14  71 NW6       30.29R WCI  14
WATERTOWN      CLEAR     19  14  82 NW5       30.28R WCI  12
MONROE         CLEAR     21  14  73 W9        30.28R WCI  11
JANESVILLE     CLEAR     19  14  79 NW3       30.29R
$$

WIZ051-052-058>065-066-070>072-221100-
SOUTHEAST WISCONSIN

CITY           SKY/WX    TMP DP  RH WIND       PRES   REMARKS
MILWAUKEE      CLEAR     23  14  68 NW6       30.28R WCI  16
WAUKESHA       CLEAR     19  14  79 NW8       30.28R WCI   9
MILWAUKEE/TIMM CLEAR     19  12  73 NW6       30.28R WCI  11
RACINE         CLEAR     21  13  71 W6        30.30R WCI  13
BURLINGTON     CLEAR     22  19  88 CALM      30.28R
KENOSHA        CLEAR     19  13  77 W5        30.29R WCI  12
FOND DU LAC    CLEAR     19  11  70 NW9       30.29R WCI   8
SHEBOYGAN      CLEAR     21  13  71 NW5       30.27R WCI  15
WEST BEND      CLEAR     19  12  73 NW3       30.27R
JUNEAU         CLEAR     18  12  77 CALM      30.29R
$$

LSZ147-162-221100-
LAKE SUPERIOR

STATION/POSITION TIME  TEMP    WIND        PRES    WAVE
                       AIR SEA DIR/SP/G            HT/PER
                 (UTC) (F)     (DEG/KT/KT) (MB)    (FT/S)
DEVILS ISLAND    0900   22     310/  7/  9 1026.1F
SAXON HARBOR     0940   21     240/  5/ 10 1024.7F
$$

LMZ867-665-643>646-221100-
LAKE MICHIGAN

STATION/POSITION TIME  TEMP    WIND        PRES    WAVE
                       AIR SEA DIR/SP/G            HT/PER
                 (UTC) (F)     (DEG/KT/KT) (MB)    (FT/S)
N MID LAKE BUOY  0850   28 47  310/ 19/ 23 1023.6R   4/ 5
NORTHPORT PIER   0949   27     320/ 15/ 21 1023.4R
KEWAUNEE LAKESHO 0930   26     330/  8/ 11 1023.4R
SHEBOYGAN LAKESH 0900   25     320/  8/ 10 1025.4R
PORT WASHINGTON  0940   22     300/  4/  6 1026.4R
MILWAUKEE LAKESH 0930   24     320/  6/  8   N/A
S MID LAKE BUOY  0850   31 47  350/ 14/ 17 1024.5R   5/ 7
KENOSHA   LAKESH 0900   23     310/  7/ 10 1024.7
$$

TC  - TEMPERATURE IN CELSIUS
VSB - VISIBILITY IN STATUTE MILES
WCI - WIND CHILL INDEX
HX  - HEAT INDEX





USA.gov is the U.S. government's official web portal to all federal, state and local government web resources and services.